Volver al catálogo

FENGYUN 1C DEB

ActivoSSO
NORAD 31234·DEBRIS·🇨🇳 China

Lanzado May 10, 1999 desde Taiyuan Satellite Launch Center

Loading…

Próximos Pases (próximas 24 horas)

TLE

ActualizadoSource: Space-Track

Época: Sep 12, 2026, 05:55 UTC

1 31234U 99025BLQ 26255.24693990  .00000198  00000-0  13772-3 0  9991
2 31234  98.8012 247.2900 0073231 175.4483 184.7368 14.08250837765693

Sigue FENGYUN 1C DEB en tiempo real con AllMySat

Download on the App Store